Weather History for Chipley, FL

Change the Weather History Date:

Monday, December 2, 2013

  Actual Average (KMAI) Record (KMAI)
Temperature  
Mean Temperature 64 °F 56 °F  
Max Temperature 71 °F 67 °F 78 °F (1998)
Min Temperature 57 °F 44 °F 28 °F (1999)
Degree Days  
Heating Degree Days 1    
Month to date heating degree days  
Since 1 July heating degree days  
Cooling Degree Days 0    
Month to date cooling degree days  
Year to date cooling degree days  
Growing Degree Days 14 (Base 50)    
Moisture  
Dew Point 54 °F    
Average Humidity 70    
Maximum Humidity 88    
Minimum Humidity 59    
Precipitation  
Precipitation 0.00 in 0.15 in 0.03 in (2005)
Month to date precipitation 0.29  
Year to date precipitation 49.96  
Sea Level Pressure  
Sea Level Pressure 29.89 in    
Wind  
Wind Speed 4 mph (South)    
Max Wind Speed 14 mph    
Max Gust Speed 20 mph    
Visibility 10 miles    
Events      
T = Trace of Precipitation, MM = Missing Value Source: NWS Daily Summary

Daily Weather History Graph

Daily Weather History Graph

Search for Another Location

Airport:

Trip Planner

Search our weather history database for the weather conditions in past years. The results will help you decide how hot, cold, wet, or windy it might be!

Date:

Astronomy

Dec. 02, 2013 Rise Set
Actual Time 6:23 AM CST 4:40 PM CST
Civil Twilight 5:57 AM CST 5:06 PM CST
Nautical Twilight 5:27 AM CST 5:36 PM CST
Astronomical Twilight 4:58 AM CST 6:05 PM CST
Moon 5:50 AM CST (12/2) 4:40 PM CST (12/2)
Length of Visible Light 11h 09m
Length of Day
10h 17m
Waning Crescent, 0% of the Moon is Illuminated
Dec 2
Waning Crescent
Dec 2
New
Dec 9
First Quarter
Dec 17
Full
Dec 25
Last Quarter

Hourly Weather History & Observations

Time (CST) Temp. Dew Point Humidity Pressure Visibility Wind Dir Wind Speed Gust Speed Precip Events Conditions
12:15 AM 57.2 °F 50.0 °F 77% 30.02 in 10.0 mi South 3.5 mph - N/A   Partly Cloudy
12:35 AM 57.2 °F 50.0 °F 77% 30.00 in 10.0 mi South 3.5 mph - N/A   Scattered Clouds
12:55 AM 57.2 °F 50.0 °F 77% 30.01 in 10.0 mi Calm Calm - N/A   Scattered Clouds
1:15 AM 57.2 °F 50.0 °F 77% 30.00 in 10.0 mi South 4.6 mph - N/A   Partly Cloudy
1:35 AM 57.2 °F 50.0 °F 77% 30.01 in 10.0 mi Calm Calm - N/A   Scattered Clouds
1:55 AM 57.2 °F 50.0 °F 77% 30.00 in 10.0 mi Calm Calm - N/A   Overcast
2:15 AM 57.2 °F 50.0 °F 77% 30.00 in 10.0 mi Calm Calm - N/A   Scattered Clouds
2:35 AM 57.2 °F 50.0 °F 77% 30.00 in 10.0 mi South 3.5 mph - N/A   Partly Cloudy
2:55 AM 57.2 °F 50.0 °F 77% 30.00 in 10.0 mi Calm Calm - N/A   Scattered Clouds
3:15 AM 57.2 °F 48.2 °F 72% 29.99 in 10.0 mi Calm Calm - N/A   Mostly Cloudy
3:35 AM 57.2 °F 48.2 °F 72% 29.98 in 10.0 mi Calm Calm - N/A   Overcast
3:55 AM 57.2 °F 48.2 °F 72% 29.97 in 10.0 mi Calm Calm - N/A   Overcast
4:15 AM 57.2 °F 48.2 °F 72% 29.96 in 10.0 mi Calm Calm - N/A   Overcast
4:35 AM 57.2 °F 46.4 °F 67% 29.96 in 10.0 mi Calm Calm - N/A   Overcast
4:55 AM 57.2 °F 46.4 °F 67% 29.96 in 10.0 mi Calm Calm - N/A   Overcast
5:15 AM 57.2 °F 46.4 °F 67% 29.95 in 10.0 mi Calm Calm - N/A   Overcast
5:35 AM 57.2 °F 46.4 °F 67% 29.95 in 10.0 mi South 3.5 mph - N/A   Mostly Cloudy
5:55 AM 57.2 °F 46.4 °F 67% 29.95 in 10.0 mi Calm Calm - N/A   Mostly Cloudy
6:15 AM 57.2 °F 44.6 °F 63% 29.95 in 10.0 mi South 3.5 mph - N/A   Overcast
6:35 AM 57.2 °F 44.6 °F 63% 29.95 in 10.0 mi Calm Calm - N/A   Overcast
6:55 AM 57.2 °F 42.8 °F 59% 29.95 in 10.0 mi Calm Calm - N/A   Overcast
7:15 AM 59.0 °F 44.6 °F 59% 29.95 in 10.0 mi South 3.5 mph - N/A   Overcast
7:35 AM 59.0 °F 46.4 °F 63% 29.94 in 10.0 mi South 3.5 mph - N/A   Overcast
7:55 AM 60.8 °F 46.4 °F 59% 29.94 in 10.0 mi South 3.5 mph - N/A   Overcast
8:15 AM 60.8 °F 46.4 °F 59% 29.95 in 10.0 mi SSE 4.6 mph - N/A   Overcast
8:35 AM 60.8 °F 48.2 °F 63% 29.94 in 10.0 mi South 4.6 mph - N/A   Overcast
8:55 AM 60.8 °F 48.2 °F 63% 29.93 in 10.0 mi SSE 6.9 mph - N/A   Mostly Cloudy
9:15 AM 62.6 °F 48.2 °F 59% 29.93 in 10.0 mi South 4.6 mph - N/A   Overcast
9:35 AM 64.4 °F 50.0 °F 59% 29.94 in 10.0 mi South 5.8 mph - N/A   Overcast
9:55 AM 64.4 °F 51.8 °F 64% 29.94 in 10.0 mi South 5.8 mph - N/A   Overcast
10:15 AM 66.2 °F 53.6 °F 64% 29.93 in 10.0 mi South 6.9 mph - N/A   Overcast
10:35 AM 68.0 °F 55.4 °F 64% 29.92 in 10.0 mi SSW 10.4 mph - N/A   Overcast
10:55 AM 69.8 °F 57.2 °F 64% 29.92 in 10.0 mi South 8.1 mph - N/A   Overcast
11:15 AM 69.8 °F 57.2 °F 64% 29.90 in 10.0 mi SSW 8.1 mph - N/A   Overcast
11:35 AM 69.8 °F 57.2 °F 64% 29.88 in 10.0 mi SSW 8.1 mph - N/A   Overcast
11:55 AM 69.8 °F 57.2 °F 64% 29.88 in 10.0 mi SSW 8.1 mph 18.4 mph N/A   Overcast
12:15 PM 69.8 °F 57.2 °F 64% 29.86 in 10.0 mi South 8.1 mph 16.1 mph N/A   Overcast
12:35 PM 71.6 °F 57.2 °F 60% 29.86 in 10.0 mi South 10.4 mph 16.1 mph N/A   Overcast
12:55 PM 71.6 °F 57.2 °F 60% 29.85 in 10.0 mi South 12.7 mph - N/A   Overcast
1:15 PM 71.6 °F 57.2 °F 60% 29.84 in 10.0 mi South 10.4 mph 18.4 mph N/A   Overcast
1:35 PM 69.8 °F 57.2 °F 64% 29.83 in 10.0 mi South 13.8 mph 17.3 mph N/A   Overcast
1:55 PM 71.6 °F 57.2 °F 60% 29.83 in 10.0 mi SSW 8.1 mph 18.4 mph N/A   Overcast
2:15 PM 69.8 °F 57.2 °F 64% 29.82 in 10.0 mi SSW 8.1 mph 17.3 mph N/A   Mostly Cloudy
2:35 PM 71.6 °F 59.0 °F 64% 29.81 in 10.0 mi South 12.7 mph 17.3 mph N/A   Mostly Cloudy
2:55 PM 71.6 °F 59.0 °F 64% 29.81 in 10.0 mi SSW 8.1 mph 17.3 mph N/A   Clear
3:15 PM 71.6 °F 57.2 °F 60% 29.81 in 10.0 mi South 11.5 mph 19.6 mph N/A   Scattered Clouds
3:35 PM 71.6 °F 57.2 °F 60% 29.81 in 10.0 mi South 11.5 mph 16.1 mph N/A   Mostly Cloudy
3:55 PM 69.8 °F 57.2 °F 64% 29.80 in 10.0 mi South 9.2 mph - N/A   Scattered Clouds
4:15 PM 69.8 °F 57.2 °F 64% 29.81 in 10.0 mi South 9.2 mph - N/A   Clear
4:35 PM 69.8 °F 57.2 °F 64% 29.81 in 10.0 mi South 6.9 mph - N/A   Scattered Clouds
4:55 PM 69.8 °F 57.2 °F 64% 29.81 in 10.0 mi South 8.1 mph - N/A   Mostly Cloudy
5:15 PM 68.0 °F 57.2 °F 68% 29.81 in 10.0 mi South 10.4 mph - N/A   Overcast
5:35 PM 68.0 °F 57.2 °F 68% 29.81 in 10.0 mi South 8.1 mph - N/A   Mostly Cloudy
5:55 PM 68.0 °F 57.2 °F 68% 29.81 in 10.0 mi South 6.9 mph - N/A   Overcast
6:15 PM 66.2 °F 57.2 °F 73% 29.82 in 10.0 mi South 6.9 mph - N/A   Overcast
6:35 PM 66.2 °F 57.2 °F 73% 29.81 in 10.0 mi South 8.1 mph - N/A   Overcast
6:55 PM 66.2 °F 59.0 °F 78% 29.82 in 10.0 mi South 8.1 mph - N/A   Overcast
7:15 PM 66.2 °F 59.0 °F 78% 29.82 in 10.0 mi South 8.1 mph - N/A   Mostly Cloudy
7:35 PM 66.2 °F 59.0 °F 78% 29.82 in 10.0 mi South 6.9 mph - N/A   Overcast
7:55 PM 66.2 °F 59.0 °F 78% 29.82 in 10.0 mi South 6.9 mph - N/A   Mostly Cloudy
8:15 PM 66.2 °F 59.0 °F 78% 29.81 in 10.0 mi South 6.9 mph - N/A   Overcast
8:35 PM 66.2 °F 59.0 °F 78% 29.82 in 10.0 mi SSW 5.8 mph - N/A   Mostly Cloudy
8:55 PM 64.4 °F 59.0 °F 83% 29.83 in 10.0 mi SSW 5.8 mph - N/A   Mostly Cloudy
9:15 PM 64.4 °F 59.0 °F 83% 29.83 in 10.0 mi South 5.8 mph - N/A   Overcast
9:35 PM 64.4 °F 59.0 °F 83% 29.84 in 10.0 mi South 4.6 mph - N/A   Mostly Cloudy
9:55 PM 64.4 °F 59.0 °F 83% 29.84 in 10.0 mi South 5.8 mph - N/A   Scattered Clouds
10:15 PM 64.4 °F 59.0 °F 83% 29.84 in 10.0 mi South 6.9 mph - N/A   Mostly Cloudy
10:35 PM 64.4 °F 59.0 °F 83% 29.84 in 10.0 mi South 4.6 mph - N/A   Mostly Cloudy
10:55 PM 64.4 °F 60.8 °F 88% 29.84 in 10.0 mi SSW 4.6 mph - N/A   Mostly Cloudy
11:15 PM 64.4 °F 60.8 °F 88% 29.83 in 10.0 mi South 5.8 mph - N/A   Partly Cloudy
11:35 PM 64.4 °F 60.8 °F 88% 29.82 in 10.0 mi South 5.8 mph - N/A   Partly Cloudy
11:55 PM 64.4 °F 60.8 °F 88% 29.81 in 10.0 mi SSE 6.9 mph - N/A   Scattered Clouds